Radiation Dose at Monitoring Post of Fukushima Daini Nuclear Power Station
Date,Time,MP-1(microSv/h),MP-2(microSv/h),MP-3(microSv/h),MP-4(microSv/h),MP-5(microSv/h),MP-6(microSv/h),MP-7(microSv/h),Wind Direction,Wind Velocity(m/s),Rain
2018/10/02,00:00,0.297,0.186,0.301,0.289,0.279,0.149,0.092,west-northwest,10.4,No
2018/10/02,00:10,0.297,0.187,0.299,0.292,0.279,0.151,0.092,west-northwest,12.3,No
2018/10/02,00:20,0.296,0.186,0.302,0.289,0.280,0.151,0.093,west-northwest,11.8,No
2018/10/02,00:30,0.297,0.187,0.302,0.291,0.278,0.150,0.092,west,15.6,No
2018/10/02,00:40,0.295,0.186,0.299,0.290,0.280,0.151,0.092,west,12.2,No
2018/10/02,00:50,0.298,0.187,0.300,0.291,0.278,0.150,0.091,west-northwest,12.2,No
2018/10/02,01:00,0.297,0.186,0.301,0.292,0.281,0.151,0.092,west,13.3,No
2018/10/02,01:10,0.296,0.187,0.302,0.289,0.280,0.151,0.091,west-northwest,11.5,No
2018/10/02,01:20,0.298,0.187,0.301,0.292,0.279,0.149,0.092,west-northwest,13.1,No
2018/10/02,01:30,0.295,0.186,0.301,0.290,0.279,0.151,0.092,west-northwest,12.3,No
2018/10/02,01:40,0.298,0.188,0.302,0.290,0.277,0.150,0.091,west-northwest,12.0,No
2018/10/02,01:50,0.295,0.187,0.300,0.292,0.280,0.150,0.093,west-northwest,13.7,No
2018/10/02,02:00,0.298,0.187,0.302,0.290,0.278,0.152,0.093,west-northwest,13.7,No
2018/10/02,02:10,0.298,0.186,0.301,0.293,0.281,0.149,0.092,west-northwest,13.1,No
2018/10/02,02:20,0.296,0.188,0.303,0.289,0.279,0.150,0.092,west,9.8,No
2018/10/02,02:30,0.300,0.185,0.300,0.291,0.281,0.150,0.093,west,14.0,No
2018/10/02,02:40,0.296,0.187,0.302,0.290,0.279,0.151,0.092,west,12.2,No
2018/10/02,02:50,0.299,0.187,0.301,0.293,0.279,0.152,0.092,west,11.2,No
2018/10/02,03:00,0.296,0.188,0.303,0.292,0.280,0.150,0.093,west,9.5,No
2018/10/02,03:10,0.300,0.188,0.301,0.292,0.280,0.152,0.092,west,8.5,No
2018/10/02,03:20,0.297,0.188,0.303,0.291,0.281,0.151,0.092,west,6.5,No
2018/10/02,03:30,0.299,0.188,0.302,0.291,0.280,0.151,0.092,west,2.9,No
2018/10/02,03:40,0.297,0.187,0.302,0.293,0.280,0.150,0.092,west,6.5,No
2018/10/02,03:50,0.298,0.188,0.301,0.290,0.279,0.151,0.092,west,5.9,No
2018/10/02,04:00,0.298,0.188,0.301,0.292,0.280,0.151,0.092,west-northwest,8.8,No
2018/10/02,04:10,0.297,0.186,0.302,0.290,0.279,0.151,0.091,west,11.7,No
2018/10/02,04:20,0.298,0.187,0.302,0.292,0.280,0.151,0.092,west,17.2,No
2018/10/02,04:30,0.296,0.187,0.302,0.291,0.278,0.151,0.092,west-northwest,13.6,No
2018/10/02,04:40,0.297,0.187,0.302,0.293,0.281,0.150,0.092,west,14.4,No
2018/10/02,04:50,0.296,0.186,0.302,0.290,0.280,0.150,0.092,west,13.4,No
2018/10/02,05:00,0.298,0.187,0.302,0.291,0.280,0.150,0.093,west,10.1,No
2018/10/02,05:10,0.298,0.188,0.303,0.290,0.280,0.151,0.092,west,10.6,No
2018/10/02,05:20,0.300,0.188,0.303,0.293,0.281,0.151,0.093,west,8.4,No
2018/10/02,05:30,0.298,0.186,0.303,0.292,0.280,0.150,0.092,west,8.8,No
2018/10/02,05:40,0.300,0.189,0.301,0.292,0.282,0.151,0.092,west,9.3,No
2018/10/02,05:50,0.298,0.188,0.303,0.290,0.279,0.151,0.092,west,5.6,No
2018/10/02,06:00,0.299,0.187,0.301,0.294,0.281,0.151,0.093,west,4.8,No
2018/10/02,06:10,0.297,0.188,0.303,0.291,0.280,0.150,0.092,west-northwest,1.2,No
2018/10/02,06:20,0.300,0.186,0.301,0.293,0.281,0.152,0.092,north-northwest,0.7,No
2018/10/02,06:30,0.298,0.188,0.303,0.290,0.278,0.150,0.092,west,1.7,No
2018/10/02,06:40,0.300,0.187,0.301,0.292,0.281,0.151,0.093,west,2.2,No
2018/10/02,06:50,0.296,0.188,0.304,0.291,0.279,0.151,0.092,west-southwest,1.0,No
2018/10/02,07:00,0.299,0.187,0.301,0.290,0.281,0.151,0.092,west,2.3,No
2018/10/02,07:10,0.298,0.188,0.303,0.291,0.279,0.151,0.091,west-southwest,3.5,No
2018/10/02,07:20,0.298,0.187,0.301,0.288,0.281,0.151,0.092,west-southwest,3.4,No
2018/10/02,07:30,0.299,0.189,0.303,0.292,0.277,0.150,0.092,west-southwest,2.3,No
2018/10/02,07:40,0.299,0.186,0.301,0.291,0.280,0.153,0.092,west,1.3,No
2018/10/02,07:50,0.297,0.187,0.303,0.289,0.279,0.150,0.091,west,2.7,No
2018/10/02,08:00,0.298,0.187,0.302,0.292,0.278,0.151,0.091,west-southwest,1.8,No
2018/10/02,08:10,0.299,0.186,0.303,0.291,0.281,0.150,0.091,west,2.6,No
2018/10/02,08:20,0.297,0.187,0.302,0.288,0.277,0.151,0.091,west,2.6,No
2018/10/02,08:30,0.299,0.186,0.303,0.287,0.281,0.150,0.091,west,4.2,No
2018/10/02,08:40,0.296,0.186,0.301,0.291,0.280,0.151,0.091,west-northwest,4.3,No
2018/10/02,08:50,0.300,0.186,0.304,0.292,0.277,0.152,0.091,west,4.8,No
2018/10/02,09:00,0.298,0.187,0.303,0.289,0.281,0.151,0.091,west-northwest,4.1,No
2018/10/02,09:10,0.297,0.188,0.302,0.288,0.278,0.150,0.092,west,5.4,No
2018/10/02,09:20,0.299,0.187,0.302,0.288,0.277,0.152,0.093,west-northwest,3.3,No
2018/10/02,09:30,0.298,0.186,0.301,0.289,0.275,0.151,0.093,west-northwest,7.5,No
2018/10/02,09:40,0.296,0.186,0.304,0.288,0.280,0.151,0.093,west-northwest,7.5,No
2018/10/02,09:50,0.294,0.188,0.300,0.288,0.281,0.150,0.092,west-northwest,5.8,No
2018/10/02,10:00,0.298,0.187,0.302,0.288,0.279,0.150,0.092,west-northwest,4.0,No
2018/10/02,10:10,0.298,0.187,0.303,0.292,0.278,0.151,0.092,northwest,5.2,No
2018/10/02,10:20,0.297,0.186,0.302,0.289,0.278,0.151,0.092,west-northwest,6.6,No
2018/10/02,10:30,0.296,0.186,0.304,0.291,0.277,0.151,0.092,west-northwest,7.8,No
2018/10/02,10:40,0.295,0.187,0.301,0.291,0.277,0.151,0.091,west-northwest,5.9,No
2018/10/02,10:50,0.295,0.186,0.299,0.291,0.277,0.151,0.092,northwest,5.9,No
2018/10/02,11:00,0.295,0.186,0.302,0.290,0.277,0.150,0.092,northwest,5.9,No
2018/10/02,11:10,0.295,0.186,0.305,0.292,0.277,0.151,0.092,west-northwest,6.7,No
2018/10/02,11:20,0.298,0.186,0.301,0.292,0.278,0.151,0.092,west,7.8,No
2018/10/02,11:30,0.300,0.187,0.299,0.290,0.278,0.152,0.092,west-northwest,7.4,No
2018/10/02,11:40,0.299,0.186,0.300,0.291,0.279,0.152,0.092,west-northwest,7.4,No
2018/10/02,11:50,0.297,0.186,0.299,0.292,0.279,0.152,0.092,west-northwest,5.8,No
2018/10/02,12:00,0.297,0.186,0.299,0.292,0.279,0.152,0.093,west,5.8,No
2018/10/02,12:10,0.297,0.186,0.299,0.292,0.279,0.153,0.093,west-northwest,6.0,No
2018/10/02,12:20,0.301,0.186,0.301,0.292,0.277,0.153,0.092,west-northwest,6.2,No
2018/10/02,12:30,0.302,0.186,0.299,0.293,0.278,0.152,0.092,west-northwest,6.4,No
2018/10/02,12:40,0.299,0.186,0.300,0.294,0.278,0.151,0.092,west-northwest,4.9,No
2018/10/02,12:50,0.298,0.186,0.299,0.293,0.279,0.152,0.093,northwest,3.8,No
2018/10/02,13:00,0.297,0.186,0.300,0.292,0.279,0.153,0.093,northwest,5.0,No
2018/10/02,13:10,0.296,0.186,0.301,0.292,0.279,0.152,0.093,northwest,7.0,No
2018/10/02,13:20,0.299,0.187,0.302,0.291,0.278,0.153,0.093,west,5.4,No
2018/10/02,13:30,0.301,0.190,0.304,0.292,0.279,0.152,0.092,west-northwest,3.8,No
2018/10/02,13:40,0.300,0.189,0.306,0.291,0.278,0.152,0.093,west-southwest,6.0,No
2018/10/02,13:50,0.298,0.188,0.304,0.292,0.279,0.153,0.093,west,7.6,No
2018/10/02,14:00,0.297,0.188,0.303,0.290,0.280,0.152,0.093,west,5.1,No
2018/10/02,14:10,0.296,0.187,0.303,0.290,0.280,0.152,0.092,west,4.2,No
2018/10/02,14:20,0.298,0.189,0.301,0.290,0.279,0.152,0.092,west-northwest,4.1,No
2018/10/02,14:30,0.296,0.188,0.301,0.292,0.279,0.152,0.092,west-northwest,4.0,No
2018/10/02,14:40,0.297,0.188,0.300,0.295,0.278,0.153,0.093,west-northwest,3.7,No
2018/10/02,14:50,0.300,0.188,0.303,0.294,0.279,0.152,0.093,northwest,2.9,No
2018/10/02,15:00,0.302,0.187,0.306,0.290,0.285,0.153,0.092,west-northwest,3.3,No
2018/10/02,15:10,0.300,0.188,0.304,0.294,0.282,0.152,0.092,west,2.6,No
2018/10/02,15:20,0.298,0.189,0.303,0.295,0.281,0.153,0.095,south-southwest,2.6,No
2018/10/02,15:30,0.298,0.187,0.306,0.293,0.281,0.151,0.093,south,5.8,No
2018/10/02,15:40,0.301,0.188,0.303,0.294,0.284,0.153,0.092,south,7.5,No
2018/10/02,15:50,0.302,0.189,0.302,0.295,0.281,0.153,0.093,south,6.3,No
2018/10/02,16:00,0.297,0.187,0.306,0.292,0.278,0.151,0.093,south,4.0,No
2018/10/02,16:10,0.300,0.189,0.304,0.293,0.284,0.153,0.092,south,3.2,No
2018/10/02,16:20,0.301,0.189,0.301,0.295,0.281,0.152,0.093,south-southwest,3.0,No
2018/10/02,16:30,0.299,0.188,0.306,0.292,0.278,0.152,0.093,south-southwest,2.6,No
2018/10/02,16:40,0.299,0.189,0.304,0.294,0.283,0.152,0.092,south,1.9,No
2018/10/02,16:50,0.303,0.188,0.303,0.294,0.283,0.153,0.093,south,2.4,No
2018/10/02,17:00,0.299,0.187,0.306,0.293,0.278,0.151,0.093,south,3.6,No
2018/10/02,17:10,0.300,0.188,0.303,0.297,0.283,0.153,0.093,south-southwest,1.5,No
2018/10/02,17:20,0.301,0.188,0.304,0.293,0.281,0.153,0.094,south,1.9,No
2018/10/02,17:30,0.298,0.190,0.305,0.292,0.281,0.150,0.093,south-southwest,2.2,No
2018/10/02,17:40,0.300,0.187,0.305,0.295,0.283,0.153,0.093,south-southwest,1.9,No
2018/10/02,17:50,0.299,0.189,0.305,0.293,0.281,0.152,0.093,southwest,0.8,No
2018/10/02,18:00,0.300,0.188,0.304,0.296,0.283,0.152,0.093,northwest,0.6,No
2018/10/02,18:10,0.300,0.190,0.305,0.294,0.281,0.151,0.093,northwest,1.1,No
2018/10/02,18:20,0.301,0.188,0.303,0.297,0.283,0.153,0.093,north,1.5,No
2018/10/02,18:30,0.300,0.188,0.306,0.295,0.279,0.152,0.094,north-northwest,1.3,No
2018/10/02,18:40,0.301,0.188,0.304,0.295,0.281,0.152,0.094,west-northwest,3.0,No
2018/10/02,18:50,0.300,0.189,0.307,0.294,0.281,0.153,0.093,north-northwest,1.2,No
2018/10/02,19:00,0.299,0.187,0.304,0.293,0.280,0.152,0.092,northwest,3.7,No
2018/10/02,19:10,0.300,0.190,0.305,0.294,0.282,0.152,0.093,west-northwest,3.5,No
2018/10/02,19:20,0.298,0.187,0.304,0.292,0.278,0.152,0.093,west-northwest,4.7,No
2018/10/02,19:30,0.300,0.189,0.304,0.296,0.282,0.152,0.093,northwest,2.9,No
2018/10/02,19:40,0.299,0.188,0.305,0.293,0.278,0.151,0.093,west-northwest,2.7,No
2018/10/02,19:50,0.300,0.189,0.302,0.295,0.280,0.153,0.093,west-northwest,3.1,No
2018/10/02,20:00,0.299,0.187,0.305,0.293,0.279,0.152,0.093,west-northwest,3.6,No
2018/10/02,20:10,0.299,0.188,0.303,0.295,0.281,0.152,0.093,west,2.9,No
2018/10/02,20:20,0.302,0.189,0.306,0.293,0.281,0.150,0.093,west-northwest,2.6,No
2018/10/02,20:30,0.299,0.188,0.304,0.294,0.279,0.153,0.093,west-northwest,3.0,No
2018/10/02,20:40,0.301,0.188,0.306,0.294,0.283,0.152,0.093,northwest,2.6,No
2018/10/02,20:50,0.298,0.189,0.304,0.292,0.280,0.152,0.093,northwest,2.0,No
2018/10/02,21:00,0.301,0.188,0.306,0.294,0.282,0.152,0.093,west-northwest,2.3,No
2018/10/02,21:10,0.299,0.188,0.304,0.294,0.279,0.151,0.093,northwest,2.1,No
2018/10/02,21:20,0.302,0.189,0.305,0.296,0.282,0.152,0.093,north-northwest,2.1,No
2018/10/02,21:30,0.299,0.189,0.305,0.292,0.279,0.153,0.092,northwest,1.5,No
2018/10/02,21:40,0.300,0.190,0.304,0.295,0.281,0.152,0.094,west,2.0,No
2018/10/02,21:50,0.300,0.188,0.304,0.292,0.282,0.152,0.093,west,2.1,No
2018/10/02,22:00,0.301,0.189,0.305,0.295,0.279,0.152,0.093,west-northwest,3.4,No
2018/10/02,22:10,0.300,0.189,0.305,0.293,0.282,0.152,0.093,west,3.7,No
2018/10/02,22:20,0.301,0.188,0.304,0.295,0.280,0.152,0.093,west,3.8,No
2018/10/02,22:30,0.300,0.189,0.306,0.293,0.282,0.151,0.093,west,2.6,No
2018/10/02,22:40,0.300,0.188,0.303,0.294,0.280,0.152,0.093,southwest,1.1,No
2018/10/02,22:50,0.301,0.189,0.305,0.294,0.282,0.153,0.093,south-southwest,1.2,No
2018/10/02,23:00,0.300,0.188,0.304,0.294,0.280,0.152,0.093,-,CALM,No
2018/10/02,23:10,0.300,0.189,0.307,0.293,0.282,0.152,0.094,northeast,1.4,No
2018/10/02,23:20,0.298,0.188,0.304,0.295,0.280,0.152,0.093,north,0.8,No
2018/10/02,23:30,0.301,0.189,0.305,0.295,0.280,0.153,0.094,north-northeast,0.9,No
2018/10/02,23:40,0.299,0.188,0.304,0.294,0.282,0.152,0.093,northeast,1.0,No
2018/10/02,23:50,0.301,0.190,0.305,0.294,0.280,0.152,0.094,northeast,1.4,No
